Powrót do katalogu

STARLINK-37478

AktywnyŁącznośćVLEO
NORAD 69260·PAYLOAD·🇺🇸 United States

Wystrzelony May 29, 2026 z Cape Canaveral Space Force Station

Loading…

Następne Przeloty (najbliższe 24 godziny)

TLE

ŚwieżeSource: CelesTrak SupGP

Epoka: Sep 14, 2026, 15:19 UTC

1 69260C 26117Y   26257.63868056  .00066856  00000+0  19758-2 0  2573
2 69260  53.1576 181.4086 0001311 107.0519 249.7815 15.34348400    18

Śledź STARLINK-37478 w czasie rzeczywistym z AllMySat

Download on the App Store